| time (UTC) | temp C | wind direction | speed KPH | gust KPH | rain 1hr cm | rain 24hr cm | rain mn cm | humidity % | barometer mb |
| 20260506044502 | 4 | 34 | 9.7 | 24.1 | 0.03 | 0.18 | 0.18 | 89 | 1011.2 |
| 20260506043002 | 4 | 349 | 6.4 | 19.3 | 0.15 | 0.18 | 0.18 | 91 | 1011.1 |
| 20260506041503 | 4 | 341 | 3.2 | 9.7 | 0.15 | 0.18 | 0.18 | 91 | 1011.3 |
| 20260506040006 | 4 | 320 | 6.4 | 16.1 | 0.13 | 0.15 | 0.15 | 90 | 1010.7 |
| 20260506033001 | 6 | 334 | 9.7 | 22.5 | 0.00 | 0.03 | 0.03 | 80 | 1010.6 |
| 20260506030005 | 6 | 1 | 9.7 | 19.3 | 0.00 | 0.03 | 0.03 | 76 | 1010.3 |
| 20260506023002 | 8 | 328 | 4.8 | 17.7 | 0.00 | 0.03 | 0.03 | 71 | 1009.7 |
| 20260506014504 | 8 | 292 | 0.0 | 4.8 | 0.00 | 0.03 | 0.03 | 67 | 1008.8 |
| 20260506013003 | 8 | 320 | 3.2 | 6.4 | 0.00 | 0.03 | 0.03 | 67 | 1008.3 |
| 20260506011502 | 9 | 326 | 11.3 | 25.7 | 0.00 | 0.03 | 0.03 | 64 | 1008.5 |
| 20260506010005 | 10 | 284 | 12.9 | 22.5 | 0.00 | 0.03 | 0.03 | 57 | 1008.7 |
| 20260506004503 | 10 | 290 | 8.0 | 16.1 | 0.00 | 0.03 | 0.03 | 56 | 1008.3 |
| 20260506003002 | 11 | 281 | 8.0 | 19.3 | 0.00 | 0.03 | 0.03 | 55 | 1008.3 |
| 20260506001501 | 11 | 271 | 8.0 | 17.7 | 0.00 | 0.03 | 0.03 | 54 | 1008.3 |
| 20260506000004 | 12 | 249 | 9.7 | 20.9 | 0.00 | 0.03 | 0.03 | 52 | 1008.2 |
| 20260505231502 | 13 | 315 | 8.0 | 17.7 | 0.00 | 0.03 | 0.03 | 52 | 1008.1 |
| 20260505230004 | 13 | 160 | 3.2 | 8.0 | 0.00 | 0.03 | 0.03 | 58 | 1008.2 |
| 20260505224500 | 11 | 307 | 6.4 | 12.9 | 0.00 | 0.03 | 0.03 | 64 | 1008.4 |
| 20260505223002 | 9 | 283 | 6.4 | 12.9 | 0.00 | 0.03 | 0.03 | 76 | 1008.8 |
| 20260505221500 | 9 | 292 | 16.1 | 35.4 | 0.00 | 0.03 | 0.03 | 69 | 1008.9 |
| 20260505220005 | 11 | 283 | 12.9 | 32.2 | 0.00 | 0.03 | 0.03 | 62 | 1008.9 |
| 20260505214502 | 13 | 320 | 9.7 | 25.7 | 0.00 | 0.03 | 0.03 | 56 | 1008.8 |
| 20260505213002 | 15 | 323 | 6.4 | 17.7 | 0.00 | 0.03 | 0.03 | 55 | 1009.0 |
| 20260505211501 | 12 | 327 | 3.2 | 9.7 | 0.00 | 0.03 | 0.03 | 60 | 1009.2 |
| 20260505210005 | 11 | 315 | 3.2 | 12.9 | 0.00 | 0.03 | 0.03 | 62 | 1009.1 |
| 20260505204501 | 11 | 194 | 4.8 | 16.1 | 0.00 | 0.03 | 0.03 | 63 | 1009.4 |
| 20260505201502 | 12 | 323 | 9.7 | 29.0 | 0.00 | 0.03 | 0.03 | 61 | 1009.6 |
| 20260505200004 | 12 | 266 | 11.3 | 20.9 | 0.03 | 0.03 | 0.03 | 62 | 1009.6 |
| 20260505194501 | 11 | 257 | 8.0 | 24.1 | 0.03 | 0.03 | 0.03 | 68 | 1009.7 |
| 20260505191502 | 9 | 295 | 4.8 | 14.5 | 0.03 | 0.03 | 0.03 | 87 | 1009.9 |
| 20260505184500 | 12 | 321 | 9.7 | 24.1 | 0.00 | 0.00 | 0.00 | 55 | 1009.9 |
| 20260505183001 | 13 | 226 | 9.7 | 20.9 | 0.00 | 0.00 | 0.00 | 55 | 1009.6 |
| 20260505181502 | 13 | 248 | 8.0 | 20.9 | 0.00 | 0.00 | 0.00 | 54 | 1009.7 |
| 20260505180006 | 12 | 232 | 4.8 | 11.3 | 0.00 | 0.00 | 0.00 | 56 | 1009.6 |
| 20260505174500 | 12 | 291 | 4.8 | 12.9 | 0.00 | 0.00 | 0.00 | 54 | 1010.0 |
| 20260505173001 | 12 | 303 | 4.8 | 11.3 | 0.00 | 0.00 | 0.00 | 56 | 1009.8 |
| 20260505171502 | 11 | 307 | 4.8 | 11.3 | 0.00 | 0.00 | 0.00 | 57 | 1010.3 |
| 20260505170004 | 11 | 302 | 1.6 | 6.4 | 0.00 | 0.00 | 0.00 | 56 | 1010.2 |
| 20260505164501 | 10 | 329 | 4.8 | 12.9 | 0.00 | 0.00 | 0.00 | 59 | 1010.2 |
| 20260505163001 | 9 | 328 | 6.4 | 9.7 | 0.00 | 0.00 | 0.00 | 64 | 1010.3 |
| 20260505161502 | 9 | 313 | 6.4 | 12.9 | 0.00 | 0.00 | 0.00 | 62 | 1010.6 |
| 20260505153001 | 8 | 317 | 8.0 | 16.1 | 0.00 | 0.00 | 0.00 | 63 | 1010.7 |
| 20260505124501 | 9 | 325 | 8.0 | 17.7 | 0.00 | 0.00 | 0.00 | 52 | 1010.2 |
| 20260505123001 | 9 | 330 | 8.0 | 16.1 | 0.00 | 0.00 | 0.00 | 50 | 1010.3 |
| 20260505121502 | 9 | 275 | 6.4 | 11.3 | 0.00 | 0.00 | 0.00 | 49 | 1010.4 |
| 20260505120005 | 9 | 315 | 6.4 | 12.9 | 0.00 | 0.00 | 0.00 | 48 | 1010.3 |
| 20260505114501 | 10 | 314 | 8.0 | 14.5 | 0.00 | 0.00 | 0.00 | 46 | 1009.9 |
| 20260505113001 | 10 | 265 | 6.4 | 14.5 | 0.00 | 0.00 | 0.00 | 44 | 1010.0 |
| 20260505101503 | 10 | 338 | 6.4 | 17.7 | 0.00 | 0.00 | 0.00 | 40 | 1010.1 |
| 20260505094500 | 11 | 338 | 8.0 | 17.7 | 0.00 | 0.00 | 0.00 | 31 | 1009.6 |
| 20260505093001 | 10 | 344 | 9.7 | 17.7 | 0.00 | 0.00 | 0.00 | 36 | 1009.8 |
| 20260505091501 | 11 | 330 | 8.0 | 17.7 | 0.00 | 0.00 | 0.00 | 39 | 1009.8 |
| 20260505090004 | 11 | 326 | 11.3 | 27.4 | 0.00 | 0.00 | 0.00 | 41 | 1010.2 |
| 20260505084502 | 11 | 322 | 6.4 | 16.1 | 0.00 | 0.00 | 0.00 | 41 | 1010.4 |
| 20260505083000 | 11 | 13 | 3.2 | 11.3 | 0.00 | 0.00 | 0.00 | 41 | 1010.4 |
| 20260505081503 | 12 | 306 | 3.2 | 12.9 | 0.00 | 0.00 | 0.00 | 40 | 1010.9 |
| 20260505080005 | 12 | 324 | 4.8 | 9.7 | 0.00 | 0.00 | 0.00 | 39 | 1011.1 |
| 20260505074502 | 12 | 339 | 6.4 | 19.3 | 0.00 | 0.00 | 0.00 | 38 | 1011.0 |
| 20260505071500 | 12 | 279 | 8.0 | 24.1 | 0.00 | 0.00 | 0.00 | 36 | 1011.0 |
| 20260505070005 | 12 | 306 | 3.2 | 8.0 | 0.00 | 0.00 | 0.00 | 36 | 1010.9 |
| 20260505064502 | 12 | 359 | 6.4 | 12.9 | 0.00 | 0.00 | 0.00 | 35 | 1010.9 |
| 20260505063002 | 12 | 30 | 4.8 | 12.9 | 0.00 | 0.00 | 0.00 | 35 | 1011.1 |